Change the Weather History Date:

Saturday, December 14, 2013

  Actual Average Record
Temperature  
Mean Temperature 10 °F -  
Max Temperature 15 °F 30 °F 59 °F (2002)
Min Temperature 6 °F 15 °F -5 °F (2000)
Degree Days  
Heating Degree Days 54    
Moisture  
Dew Point 8 °F    
Average Humidity 80    
Maximum Humidity 86    
Minimum Humidity 72    
Precipitation  
Precipitation 0.00 in - - ()
Sea Level Pressure  
Sea Level Pressure 30.12 in    
Wind  
Wind Speed 12 mph (NNW)    
Max Wind Speed 16 mph    
Max Gust Speed 18 mph    
Visibility 9 miles    
Events Rain , Snow    
Averages and records for this station are not official NWS values.
T = Trace of Precipitation, MM = Missing Value Source: NWS Daily Summary

Daily Weather History Graph

Daily Weather History Graph

Search for Another Location

Airport or City:

Trip Planner

Search our weather history database for the weather conditions in past years. The results will help you decide how hot, cold, wet, or windy it might be!

Date:

Astronomy

Dec. 14, 2013 Rise Set
Actual Time 7:41 AM CST 4:42 PM CST
Civil Twilight 7:08 AM CST 5:15 PM CST
Nautical Twilight 6:32 AM CST 5:50 PM CST
Astronomical Twilight 5:58 AM CST 6:25 PM CST
Moon 3:07 PM CST (12/14) 4:59 AM CST (12/14)
Length of Visible Light 10h 06m
Length of Day
9h 01m
Waxing Gibbous, 94% of the Moon is Illuminated
Dec 14
Waxing Gibbous
Dec 17
Full
Dec 25
Last Quarter
Jan 1
New
Jan 7
First Quarter

Hourly Weather History & Observations

Time (CST) Temp. Windchill Dew Point Humidity Pressure Visibility Wind Dir Wind Speed Gust Speed Precip Events Conditions
12:15 AM 15.8 °F 1.4 °F 10.4 °F 79% 30.12 in 10.0 mi NNE 13.8 mph - N/A   Overcast
12:35 AM 15.8 °F 0.3 °F 10.4 °F 79% 30.12 in 9.0 mi NNE 16.1 mph - N/A Snow Light Snow
12:55 AM 15.8 °F 1.4 °F 10.4 °F 79% 30.12 in 7.0 mi NNE 13.8 mph - N/A Rain Light Freezing Rain
1:15 AM 15.8 °F 1.4 °F 10.4 °F 79% 30.12 in 6.0 mi NNE 13.8 mph - N/A Rain Light Freezing Rain
1:35 AM 15.8 °F 0.9 °F 10.4 °F 79% 30.12 in 8.0 mi NNE 15.0 mph - N/A Rain Light Freezing Rain
1:55 AM 15.8 °F 0.9 °F 10.4 °F 79% 30.12 in 10.0 mi NNE 15.0 mph - N/A   Overcast
2:15 AM 14.0 °F -0.2 °F 10.4 °F 86% 30.12 in 10.0 mi NNE 12.7 mph - N/A   Overcast
2:35 AM 14.0 °F -0.2 °F 10.4 °F 86% 30.13 in 10.0 mi NNE 12.7 mph - N/A   Overcast
2:55 AM 14.0 °F -0.2 °F 10.4 °F 86% 30.13 in 10.0 mi NNE 12.7 mph - N/A   Overcast
3:15 AM 14.0 °F 1.2 °F 10.4 °F 86% 30.13 in 10.0 mi North 10.4 mph - N/A   Overcast
3:35 AM 14.0 °F 2.0 °F 10.4 °F 86% 30.12 in 10.0 mi North 9.2 mph 16.1 mph N/A   Overcast
3:55 AM 14.0 °F -0.2 °F 8.6 °F 79% 30.12 in 10.0 mi NNE 12.7 mph - N/A   Overcast
4:15 AM 14.0 °F -1.4 °F 8.6 °F 79% 30.12 in 10.0 mi North 15.0 mph - N/A   Overcast
4:35 AM 14.0 °F 0.5 °F 8.6 °F 79% 30.12 in 10.0 mi North 11.5 mph - N/A   Overcast
4:55 AM 14.0 °F 0.5 °F 8.6 °F 79% 30.12 in 9.0 mi North 11.5 mph - N/A Rain Light Freezing Rain
5:15 AM 14.0 °F 2.0 °F 10.4 °F 86% 30.13 in 7.0 mi North 9.2 mph - N/A Rain Light Freezing Rain
5:35 AM 14.0 °F 2.0 °F 10.4 °F 86% 30.13 in 9.0 mi North 9.2 mph - N/A Rain Light Freezing Rain
5:55 AM 14.0 °F 2.9 °F 10.4 °F 86% 30.13 in 7.0 mi North 8.1 mph - N/A Rain Light Freezing Rain
6:15 AM 14.0 °F 2.0 °F 10.4 °F 86% 30.13 in 5.0 mi North 9.2 mph - N/A Snow Light Snow
6:35 AM 14.0 °F 2.9 °F 10.4 °F 86% 30.13 in 3.0 mi North 8.1 mph 15.0 mph N/A Snow Light Snow
6:55 AM 14.0 °F 2.9 °F 10.4 °F 86% 30.13 in 3.0 mi North 8.1 mph - N/A Snow Light Snow
7:15 AM 14.0 °F -0.2 °F 10.4 °F 86% 30.14 in 2.5 mi North 12.7 mph - N/A Snow Light Snow
7:35 AM 12.2 °F 0.7 °F 8.6 °F 85% 30.14 in 2.5 mi North 8.1 mph 13.8 mph N/A Snow Light Snow
7:55 AM 12.2 °F -0.2 °F 8.6 °F 85% 30.15 in 8.0 mi North 9.2 mph - N/A Snow Light Snow
8:15 AM 12.2 °F -2.5 °F 8.6 °F 85% 30.16 in 10.0 mi North 12.7 mph - N/A   Overcast
8:35 AM 12.2 °F -3.1 °F 8.6 °F 85% 30.17 in 8.0 mi North 13.8 mph - N/A Rain Light Freezing Rain
8:55 AM 12.2 °F -1.8 °F 8.6 °F 85% 30.16 in 6.0 mi North 11.5 mph 17.3 mph N/A Rain Light Freezing Rain
9:15 AM 12.2 °F -1.0 °F 8.6 °F 85% 30.17 in 5.0 mi North 10.4 mph 16.1 mph N/A Snow Light Snow
9:35 AM 12.2 °F -1.0 °F 8.6 °F 85% 30.16 in 3.0 mi North 10.4 mph 16.1 mph N/A Snow Light Snow
9:55 AM 14.0 °F 2.0 °F 8.6 °F 79% 30.16 in 4.0 mi North 9.2 mph - N/A Snow Light Snow
10:15 AM 14.0 °F 0.5 °F 8.6 °F 79% 30.16 in 8.0 mi North 11.5 mph - N/A Rain Light Freezing Rain
10:35 AM 14.0 °F 2.0 °F 8.6 °F 79% 30.15 in 8.0 mi North 9.2 mph 15.0 mph N/A Rain Light Freezing Rain
10:55 AM 12.2 °F -1.0 °F 8.6 °F 85% 30.15 in 9.0 mi North 10.4 mph - N/A   Overcast
11:15 AM 14.0 °F 2.0 °F 8.6 °F 79% 30.14 in 9.0 mi North 9.2 mph - N/A   Overcast
11:35 AM 14.0 °F 2.9 °F 8.6 °F 79% 30.14 in 10.0 mi NNW 8.1 mph - N/A   Overcast
11:55 AM 14.0 °F 2.0 °F 8.6 °F 79% 30.14 in 10.0 mi NNW 9.2 mph - N/A   Overcast
12:15 PM 14.0 °F 2.9 °F 8.6 °F 79% 30.13 in 10.0 mi NNW 8.1 mph 13.8 mph N/A   Overcast
12:35 PM 14.0 °F 2.9 °F 8.6 °F 79% 30.12 in 10.0 mi NNW 8.1 mph - N/A   Overcast
12:55 PM 15.8 °F 3.4 °F 8.6 °F 73% 30.11 in 10.0 mi NNW 10.4 mph - N/A   Overcast
1:15 PM 14.0 °F 1.2 °F 8.6 °F 79% 30.11 in 10.0 mi NW 10.4 mph - N/A Rain Light Freezing Rain
1:35 PM 15.8 °F 6.1 °F 8.6 °F 73% 30.10 in 10.0 mi NNW 6.9 mph - N/A   Overcast
1:55 PM 15.8 °F 2.1 °F 8.6 °F 73% 30.10 in 10.0 mi NNW 12.7 mph - N/A   Overcast
2:15 PM 14.0 °F 1.2 °F 8.6 °F 79% 30.10 in 10.0 mi NW 10.4 mph - N/A   Overcast
2:35 PM 15.8 °F 2.1 °F 8.6 °F 73% 30.11 in 10.0 mi NNW 12.7 mph - N/A   Overcast
2:55 PM 15.8 °F 5.1 °F 8.6 °F 73% 30.10 in 10.0 mi NW 8.1 mph 15.0 mph N/A Snow Light Snow
3:15 PM 15.8 °F 3.4 °F 8.6 °F 73% 30.10 in 10.0 mi NW 10.4 mph - N/A Snow Light Snow
3:35 PM 15.8 °F 3.4 °F 8.6 °F 73% 30.11 in 10.0 mi NW 10.4 mph 17.3 mph N/A   Overcast
3:55 PM 14.0 °F 1.2 °F 8.6 °F 79% 30.11 in 10.0 mi NW 10.4 mph 16.1 mph N/A   Overcast
4:15 PM 14.0 °F 1.2 °F 8.6 °F 79% 30.11 in 10.0 mi NW 10.4 mph 16.1 mph N/A   Overcast
4:35 PM 14.0 °F 2.9 °F 6.8 °F 73% 30.10 in 10.0 mi WNW 8.1 mph - N/A   Overcast
4:55 PM 14.0 °F 2.0 °F 8.6 °F 79% 30.10 in 10.0 mi WNW 9.2 mph - N/A   Overcast
5:15 PM 14.0 °F 2.0 °F 8.6 °F 79% 30.09 in 10.0 mi WNW 9.2 mph - N/A   Overcast
5:35 PM 14.0 °F 1.2 °F 8.6 °F 79% 30.09 in 10.0 mi WNW 10.4 mph - N/A   Overcast
5:55 PM 14.0 °F -0.8 °F 8.6 °F 79% 30.10 in 10.0 mi WNW 13.8 mph - N/A Snow Light Snow
6:15 PM 12.2 °F -1.0 °F 6.8 °F 79% 30.09 in 10.0 mi WNW 10.4 mph - N/A   Overcast
6:35 PM 10.4 °F -3.3 °F 6.8 °F 85% 30.10 in 10.0 mi WNW 10.4 mph - N/A   Mostly Cloudy
6:55 PM 10.4 °F -2.4 °F 6.8 °F 85% 30.10 in 10.0 mi WNW 9.2 mph - N/A   Overcast
7:15 PM 10.4 °F -2.4 °F 5.0 °F 79% 30.09 in 10.0 mi WNW 9.2 mph - N/A   Overcast
7:35 PM 12.2 °F -1.8 °F 5.0 °F 73% 30.09 in 10.0 mi WNW 11.5 mph - N/A   Overcast
7:55 PM 12.2 °F -2.5 °F 5.0 °F 73% 30.10 in 10.0 mi NW 12.7 mph 18.4 mph N/A Snow Light Snow
8:15 PM 12.2 °F -3.1 °F 5.0 °F 73% 30.10 in 10.0 mi NW 13.8 mph - N/A   Overcast
8:35 PM 10.4 °F -5.4 °F 5.0 °F 79% 30.10 in 10.0 mi NW 13.8 mph - N/A   Overcast
8:55 PM 10.4 °F -3.3 °F 3.2 °F 73% 30.11 in 8.0 mi NNW 10.4 mph 17.3 mph N/A Snow Light Snow
9:15 PM 8.6 °F -6.3 °F 1.4 °F 73% 30.11 in 9.0 mi NNW 11.5 mph - N/A   Overcast
9:35 PM 8.6 °F -5.5 °F 1.4 °F 73% 30.11 in 10.0 mi NNW 10.4 mph - N/A   Overcast
9:55 PM 6.8 °F -5.9 °F 1.4 °F 79% 30.10 in 10.0 mi NNW 8.1 mph - N/A   Overcast
10:15 PM 6.8 °F -7.8 °F 1.4 °F 79% 30.11 in 10.0 mi NW 10.4 mph - N/A   Overcast
10:35 PM 6.8 °F -4.8 °F -0.4 °F 72% 30.09 in 10.0 mi NW 6.9 mph - N/A   Overcast
10:55 PM 6.8 °F -4.8 °F -0.4 °F 72% 30.09 in - NW 6.9 mph - N/A   Overcast
11:15 PM 6.8 °F -4.8 °F 1.4 °F 79% 30.09 in 10.0 mi WNW 6.9 mph - N/A   Overcast
11:35 PM 6.8 °F -5.9 °F 1.4 °F 79% 30.09 in 10.0 mi NW 8.1 mph - N/A   Overcast
11:55 PM 8.6 °F -4.7 °F 1.4 °F 73% 30.10 in 10.0 mi NW 9.2 mph - N/A   Overcast